| time (UTC) | temp F | wind direction | speed knots | gust knots | rain 1hr in | rain 24hr in | rain mn in | humidity % | barometer mb |
| 20260508040003 | 41 | 231 | 0.0 | 0.0 | 0.00 | 0.00 | 0.00 | 85 | 1013.4 |
| 20260508034605 | 40 | 231 | 0.0 | 0.0 | 0.00 | 0.00 | 0.00 | 84 | 1013.3 |
| 20260508033027 | 40 | 231 | 0.0 | 0.0 | 0.00 | 0.00 | 0.00 | 83 | 1013.2 |
| 20260508031515 | 41 | 231 | 0.0 | 0.0 | 0.00 | 0.00 | 0.00 | 83 | 1013.3 |
| 20260508030115 | 41 | 231 | 0.0 | 0.0 | 0.00 | 0.00 | 0.00 | 82 | 1013.5 |
| 20260508024610 | 41 | 231 | 0.0 | 0.0 | 0.00 | 0.00 | 0.00 | 80 | 1013.6 |
| 20260508023006 | 42 | 231 | 0.0 | 0.0 | 0.00 | 0.00 | 0.00 | 79 | 1013.5 |
| 20260508021607 | 42 | 231 | 0.0 | 0.0 | 0.00 | 0.00 | 0.00 | 78 | 1013.4 |
| 20260508020026 | 43 | 231 | 0.0 | 0.0 | 0.00 | 0.00 | 0.00 | 76 | 1013.4 |
| 20260508014627 | 44 | 231 | 0.0 | 0.0 | 0.00 | 0.00 | 0.00 | 70 | 1013.3 |
| 20260508013053 | 46 | 231 | 0.0 | 0.0 | 0.00 | 0.00 | 0.00 | 68 | 1013.3 |
| 20260508011526 | 47 | 231 | 0.0 | 0.0 | 0.00 | 0.00 | 0.00 | 64 | 1013.2 |
| 20260508010126 | 49 | 231 | 0.0 | 0.0 | 0.00 | 0.00 | 0.00 | 60 | 1013.1 |
| 20260508004555 | 49 | 231 | 0.0 | 1.7 | 0.00 | 0.00 | 0.00 | 57 | 1013.1 |
| 20260508003008 | 50 | 285 | 1.7 | 9.6 | 0.00 | 0.00 | 0.00 | 54 | 1013.0 |
| 20260508001533 | 51 | 288 | 2.6 | 10.4 | 0.00 | 0.00 | 0.00 | 53 | 1012.8 |
| 20260508000024 | 51 | 251 | 3.5 | 9.6 | 0.00 | 0.00 | 0.00 | 51 | 1012.7 |
| 20260507234523 | 52 | 290 | 5.2 | 14.8 | 0.00 | 0.00 | 0.00 | 50 | 1012.5 |
| 20260507233023 | 52 | 246 | 7.8 | 13.0 | 0.00 | 0.00 | 0.00 | 49 | 1012.5 |
| 20260507231523 | 53 | 213 | 7.8 | 13.9 | 0.00 | 0.00 | 0.00 | 50 | 1012.5 |
| 20260507230021 | 53 | 298 | 7.0 | 14.8 | 0.00 | 0.00 | 0.00 | 50 | 1012.6 |
| 20260507224521 | 53 | 252 | 7.0 | 17.4 | 0.00 | 0.00 | 0.00 | 51 | 1012.6 |
| 20260507223021 | 53 | 257 | 6.1 | 12.2 | 0.00 | 0.00 | 0.00 | 50 | 1012.5 |
| 20260507221521 | 54 | 317 | 7.0 | 18.2 | 0.00 | 0.00 | 0.00 | 49 | 1012.5 |
| 20260507220018 | 54 | 265 | 7.0 | 16.5 | 0.00 | 0.00 | 0.00 | 46 | 1012.4 |
| 20260507214518 | 54 | 250 | 5.2 | 10.4 | 0.00 | 0.00 | 0.00 | 50 | 1012.4 |
| 20260507213026 | 54 | 298 | 5.2 | 12.2 | 0.00 | 0.00 | 0.00 | 54 | 1012.3 |
| 20260507211517 | 53 | 200 | 6.1 | 13.9 | 0.00 | 0.00 | 0.00 | 52 | 1012.2 |
| 20260507210017 | 54 | 253 | 7.8 | 18.2 | 0.00 | 0.00 | 0.00 | 52 | 1012.1 |
| 20260507204517 | 54 | 313 | 4.3 | 18.2 | 0.00 | 0.00 | 0.00 | 52 | 1012.0 |
| 20260507203031 | 55 | 235 | 3.5 | 14.8 | 0.00 | 0.00 | 0.00 | 53 | 1012.1 |
| 20260507201516 | 54 | 240 | 4.3 | 15.6 | 0.00 | 0.00 | 0.00 | 48 | 1012.1 |
| 20260507200012 | 55 | 269 | 5.2 | 16.5 | 0.00 | 0.00 | 0.00 | 46 | 1012.3 |
| 20260507194516 | 55 | 266 | 6.1 | 19.1 | 0.00 | 0.00 | 0.00 | 47 | 1012.4 |
| 20260507193008 | 55 | 310 | 6.1 | 13.9 | 0.00 | 0.00 | 0.00 | 45 | 1012.6 |
| 20260507191511 | 55 | 240 | 6.1 | 13.9 | 0.00 | 0.00 | 0.00 | 46 | 1012.7 |
| 20260507190011 | 54 | 282 | 7.8 | 18.2 | 0.00 | 0.00 | 0.00 | 46 | 1012.8 |
| 20260507184503 | 55 | 273 | 7.0 | 15.6 | 0.00 | 0.00 | 0.00 | 47 | 1012.8 |
| 20260507183005 | 55 | 244 | 7.0 | 12.2 | 0.00 | 0.00 | 0.00 | 48 | 1012.9 |
| 20260507181503 | 55 | 296 | 3.5 | 14.8 | 0.00 | 0.00 | 0.00 | 50 | 1012.6 |
| 20260507174603 | 56 | 224 | 5.2 | 12.2 | 0.00 | 0.00 | 0.00 | 51 | 1012.7 |
| 20260507173131 | 55 | 226 | 4.3 | 14.8 | 0.00 | 0.00 | 0.00 | 53 | 1012.8 |
| 20260507171600 | 55 | 279 | 7.0 | 13.0 | 0.00 | 0.00 | 0.00 | 47 | 1012.9 |
| 20260507170058 | 55 | 333 | 4.3 | 10.4 | 0.00 | 0.00 | 0.00 | 50 | 1012.7 |
| 20260507164557 | 56 | 304 | 3.5 | 13.0 | 0.00 | 0.00 | 0.00 | 52 | 1012.8 |
| 20260507163055 | 55 | 279 | 7.0 | 13.0 | 0.00 | 0.00 | 0.00 | 52 | 1012.8 |
| 20260507161601 | 56 | 265 | 7.0 | 13.9 | 0.00 | 0.00 | 0.00 | 50 | 1012.9 |
| 20260507160100 | 56 | 240 | 5.2 | 11.3 | 0.00 | 0.00 | 0.00 | 52 | 1012.9 |
| 20260507154549 | 55 | 245 | 2.6 | 8.7 | 0.00 | 0.00 | 0.00 | 56 | 1013.0 |
| 20260507153053 | 55 | 274 | 5.2 | 9.6 | 0.00 | 0.00 | 0.00 | 55 | 1013.2 |
| 20260507151546 | 54 | 286 | 2.6 | 8.7 | 0.00 | 0.00 | 0.00 | 55 | 1013.2 |
| 20260507150045 | 54 | 296 | 3.5 | 9.6 | 0.00 | 0.00 | 0.00 | 56 | 1013.2 |
| 20260507144544 | 53 | 234 | 2.6 | 8.7 | 0.00 | 0.00 | 0.00 | 59 | 1013.1 |
| 20260507143056 | 54 | 297 | 3.5 | 9.6 | 0.00 | 0.00 | 0.00 | 58 | 1013.2 |
| 20260507141553 | 54 | 234 | 2.6 | 7.8 | 0.00 | 0.00 | 0.00 | 56 | 1013.4 |
| 20260507140041 | 54 | 303 | 0.9 | 4.3 | 0.00 | 0.00 | 0.00 | 61 | 1013.6 |
| 20260507134538 | 53 | 252 | 1.7 | 5.2 | 0.00 | 0.00 | 0.00 | 64 | 1013.7 |
| 20260507133102 | 52 | 289 | 3.5 | 6.1 | 0.00 | 0.00 | 0.00 | 65 | 1013.7 |
| 20260507131531 | 51 | 285 | 2.6 | 6.1 | 0.00 | 0.00 | 0.00 | 69 | 1013.6 |
| 20260507130026 | 51 | 256 | 2.6 | 9.6 | 0.00 | 0.00 | 0.00 | 69 | 1013.6 |
| 20260507124528 | 50 | 225 | 2.6 | 7.0 | 0.00 | 0.00 | 0.00 | 75 | 1013.7 |
| 20260507123031 | 49 | 232 | 2.6 | 7.0 | 0.00 | 0.00 | 0.00 | 74 | 1013.7 |
| 20260507121518 | 48 | 248 | 2.6 | 5.2 | 0.00 | 0.00 | 0.00 | 76 | 1013.6 |
| 20260507120012 | 46 | 288 | 0.0 | 2.6 | 0.00 | 0.00 | 0.00 | 81 | 1013.6 |
| 20260507114508 | 45 | 288 | 0.0 | 1.7 | 0.00 | 0.00 | 0.00 | 85 | 1013.7 |
| 20260507113010 | 44 | 288 | 0.0 | 0.0 | 0.00 | 0.00 | 0.00 | 87 | 1013.6 |
| 20260507111504 | 43 | 288 | 0.0 | 0.0 | 0.00 | 0.00 | 0.00 | 88 | 1013.4 |
| 20260507110001 | 42 | 288 | 0.0 | 0.0 | 0.00 | 0.00 | 0.00 | 88 | 1013.4 |
| 20260507104604 | 42 | 288 | 0.0 | 0.0 | 0.00 | 0.01 | 0.00 | 89 | 1013.2 |
| 20260507103100 | 41 | 288 | 0.0 | 0.0 | 0.00 | 0.01 | 0.00 | 90 | 1013.1 |
| 20260507101605 | 40 | 288 | 0.0 | 0.0 | 0.00 | 0.01 | 0.00 | 91 | 1013.2 |
| 20260507100052 | 39 | 288 | 0.0 | 0.0 | 0.00 | 0.01 | 0.00 | 90 | 1013.1 |
| 20260507094618 | 39 | 288 | 0.0 | 0.0 | 0.00 | 0.04 | 0.00 | 90 | 1013.0 |
| 20260507093048 | 38 | 288 | 0.0 | 0.0 | 0.00 | 0.04 | 0.00 | 88 | 1013.1 |
| 20260507091510 | 39 | 288 | 0.0 | 0.0 | 0.00 | 0.04 | 0.00 | 88 | 1013.1 |
| 20260507090108 | 39 | 288 | 0.0 | 0.0 | 0.00 | 0.04 | 0.00 | 87 | 1013.1 |
| 20260507084536 | 39 | 288 | 0.0 | 0.0 | 0.00 | 0.12 | 0.00 | 87 | 1013.2 |
| 20260507083130 | 39 | 177 | 0.0 | 0.0 | 0.00 | 0.12 | 0.00 | 87 | 1013.2 |
| 20260507081546 | 39 | 177 | 0.0 | 0.0 | 0.00 | 0.12 | 0.00 | 87 | 1013.4 |
| 20260507080014 | 39 | 290 | 0.0 | 0.0 | 0.00 | 0.12 | 0.00 | 87 | 1013.4 |
| 20260507074609 | 39 | 290 | 0.0 | 0.0 | 0.00 | 0.15 | 0.00 | 87 | 1013.4 |
| 20260507073035 | 40 | 290 | 0.0 | 0.0 | 0.00 | 0.15 | 0.00 | 88 | 1013.4 |
| 20260507071630 | 39 | 290 | 0.0 | 0.0 | 0.00 | 0.15 | 0.00 | 89 | 1013.5 |
| 20260507070100 | 39 | 290 | 0.0 | 0.0 | 0.00 | 0.15 | 0.00 | 89 | 1013.6 |
| 20260507064517 | 39 | 290 | 0.0 | 0.0 | 0.00 | 0.18 | 0.00 | 89 | 1013.7 |
| 20260507063118 | 39 | 290 | 0.0 | 0.0 | 0.00 | 0.18 | 0.00 | 89 | 1013.8 |
| 20260507061532 | 40 | 290 | 0.0 | 0.0 | 0.00 | 0.18 | 0.00 | 88 | 1013.9 |
| 20260507060123 | 40 | 290 | 0.0 | 0.0 | 0.00 | 0.18 | 0.00 | 87 | 1014.1 |
| 20260507054533 | 41 | 290 | 0.0 | 0.0 | 0.00 | 0.22 | 0.00 | 87 | 1014.1 |
| 20260507053128 | 42 | 290 | 0.0 | 0.0 | 0.00 | 0.22 | 0.00 | 87 | 1014.2 |
| 20260507051542 | 42 | 290 | 0.0 | 0.0 | 0.00 | 0.22 | 0.00 | 88 | 1014.5 |
| 20260507050015 | 42 | 290 | 0.0 | 0.0 | 0.00 | 0.22 | 0.00 | 89 | 1014.4 |
| 20260507044622 | 42 | 290 | 0.0 | 0.0 | 0.00 | 0.28 | 0.00 | 89 | 1014.5 |
| 20260507043023 | 42 | 290 | 0.0 | 0.0 | 0.00 | 0.28 | 0.00 | 90 | 1014.5 |
| 20260507041622 | 42 | 290 | 0.0 | 0.0 | 0.00 | 0.28 | 0.00 | 90 | 1014.6 |
| 20260507040050 | 42 | 290 | 0.0 | 0.0 | 0.00 | 0.28 | 0.00 | 90 | 1014.8 |